{"data":{"norad_id":62809,"epoch":"2026-09-21T20:24:17.213472Z","epoch_age_seconds":54551,"freshness":"FRESH","line1":"1 62809U 25018D   26264.85019923  .00009831  00000+0  30168-3 0  9999","line2":"2 62809  53.1595 115.4581 0001184 100.9447 259.1689 15.34402423 93245","mean_motion":15.34402423,"eccentricity":0.0001184,"inclination_deg":53.1595,"raan_deg":115.4581,"arg_perigee_deg":100.9447,"mean_anomaly_deg":259.1689,"bstar":0.00030168,"rev_number":9324,"period_min":93.847609884803,"perigee_km":461.88608391819,"apogee_km":463.50599318172,"semimajor_km":6840.83303855,"source":"CELESTRAK","updated_at":"2026-09-22T09:00:49.666940Z"}}